This demonstration page uses our WeatherBlox Daily Observations layout. Learn more.

Left ArrowRight Arrow

Hourly Observations for September 24, 2019

Temp ( °F °C ) Dew Point ( °F °C ) Humidity (%) Winds ( mph kmh ) Pressure ( in mb ) Visibility ( mi km ) Precip ( " mm )
12:59 am 00:59 Mostly Cloudy 74 23.3 66 18.9 76 76 SSW 9 15 29.87 1012 10 16 0.00 0.00
1:59 am 01:59 Mostly Cloudy 74 23.3 66 18.9 76 76 SW 10 17 29.86 1011 10 16 0.00 0.00
2:59 am 02:59 Cloudy 74 23.3 66 18.9 76 76 WSW 8 13 29.85 1011 10 16 0.00 0.00
3:59 am 03:59 Mostly Cloudy 74 23.3 66 18.9 76 76 W 7 11 29.85 1011 10 16 0.00 0.00
4:59 am 04:59 Cloudy 73 22.8 66 18.9 79 79 SSW 3 6 29.85 1011 10 16 0.00 0.00
5:59 am 05:59 Cloudy 73 22.8 67 19.4 81 81 W 3 6 29.86 1011 10 16 0.00 0.00
6:59 am 06:59 Cloudy 74 23.3 67 19.4 79 79 Calm 29.87 1011 10 16 0.00 0.00
7:59 am 07:59 Mostly Cloudy 76 24.4 67 19.4 74 74 N 9 15 29.88 1012 10 16 0.00 0.00
8:59 am 08:59 Mostly Cloudy 77 25 67 19.4 71 71 N 10 17 29.89 1012 10 16 0.00 0.00
9:59 am 09:59 Mostly Sunny 79 26.1 68 20 69 69 NNE 14 22 29.91 1013 10 16 0.00 0.00
10:59 am 10:59 Mostly Sunny 79 26.1 67 19.4 67 67 N 13 20 29.91 1013 10 16 0.00 0.00
11:59 am 11:59 Sunny 79 26.1 64 17.8 60 60 N 15 24 29.91 1013 10 16 0.00 0.00
12:59 pm 12:59 Partly Cloudy 80 26.7 64 17.8 58 58 NNE 14 22 29.90 1013 10 16 0.00 0.00
1:59 pm 13:59 Partly Cloudy 80 26.7 63 17.2 56 56 ENE 12 19 29.88 1012 10 16 0.00 0.00
2:59 pm 14:59 Partly Cloudy 80 26.7 61 16.1 52 52 NE 8 13 29.86 1011 10 16 0.00 0.00
3:59 pm 15:59 Partly Cloudy 79 26.1 63 17.2 58 58 NE 12 19 29.86 1011 10 16 0.00 0.00
4:59 pm 16:59 Mostly Sunny 79 26.1 62 16.7 56 56 NNE 9 15 29.85 1011 10 16 0.00 0.00
5:59 pm 17:59 Mostly Sunny 77 25 59 15 54 54 ENE 8 13 29.86 1011 10 16 0.00 0.00
6:59 pm 18:59 Mostly Sunny 75 23.9 60 15.6 60 60 NE 7 11 29.87 1011 10 16 0.00 0.00
7:59 pm 19:59 Mostly Clear 74 23.3 58 14.4 57 57 NE 6 9 29.89 1012 10 16 0.00 0.00
8:59 pm 20:59 Mostly Clear 74 23.3 59 15 60 60 NE 3 6 29.91 1013 10 16 0.00 0.00
9:59 pm 21:59 Mostly Clear 74 23.3 57 13.9 56 56 N 6 9 29.92 1013 10 16 0.00 0.00
10:59 pm 22:59 Clear 73 22.8 57 13.9 57 57 N 3 6 29.92 1013 10 16 0.00 0.00
11:59 pm 23:59 Clear 67 19.4 59 15 76 76 Calm 29.92 1013 10 16 0.00 0.00

Powered by AerisWeather